TimeEDT,TemperatureF,Dew PointF,Humidity,Sea Level PressureIn,VisibilityMPH,Wind Direction,Wind SpeedMPH,Gust SpeedMPH,PrecipitationIn,Events,Conditions,WindDirDegrees,DateUTC
12:53 AM,75.0,72.0,90,29.95,10.0,ENE,3.5,-,N/A,,Clear,70,2013-09-30 04:53:00
1:53 AM,75.0,72.0,90,29.93,10.0,East,3.5,-,N/A,,Clear,90,2013-09-30 05:53:00
2:53 AM,73.9,72.0,93,29.92,10.0,ENE,5.8,-,N/A,,Clear,70,2013-09-30 06:53:00
3:53 AM,73.0,71.1,93,29.92,10.0,ENE,4.6,-,N/A,,Clear,60,2013-09-30 07:53:00
4:53 AM,72.0,71.1,97,29.91,10.0,ENE,3.5,-,N/A,,Clear,60,2013-09-30 08:53:00
5:53 AM,72.0,71.1,97,29.92,10.0,East,4.6,-,N/A,,Clear,80,2013-09-30 09:53:00
6:53 AM,72.0,71.1,97,29.94,10.0,ENE,5.8,-,N/A,,Clear,60,2013-09-30 10:53:00
7:53 AM,73.0,71.1,93,29.95,9.0,East,5.8,-,N/A,,Clear,80,2013-09-30 11:53:00
8:53 AM,78.1,71.1,79,29.95,10.0,East,6.9,-,N/A,,Clear,90,2013-09-30 12:53:00
9:53 AM,82.0,72.0,71,29.96,10.0,East,6.9,-,N/A,,Clear,100,2013-09-30 13:53:00
10:53 AM,84.0,72.0,67,29.96,10.0,SE,8.1,-,N/A,,Clear,130,2013-09-30 14:53:00
11:53 AM,86.0,71.1,61,29.96,10.0,SE,10.4,-,N/A,,Partly Cloudy,130,2013-09-30 15:53:00
12:53 PM,87.1,72.0,61,29.95,10.0,South,4.6,-,N/A,,Mostly Cloudy,180,2013-09-30 16:53:00
1:53 PM,89.1,71.1,55,29.92,10.0,SE,5.8,-,N/A,,Partly Cloudy,140,2013-09-30 17:53:00
2:53 PM,87.1,73.0,63,29.90,10.0,SW,10.4,-,N/A,,Mostly Cloudy,220,2013-09-30 18:53:00
3:53 PM,86.0,71.1,61,29.89,10.0,SW,8.1,-,N/A,,Mostly Cloudy,230,2013-09-30 19:53:00
4:53 PM,84.9,73.0,67,29.90,10.0,WSW,6.9,-,0.00,,Overcast,240,2013-09-30 20:53:00
5:29 PM,80.6,71.6,74,29.92,1.5,Variable,3.5,21.9,0.10,Rain,Heavy Rain,0,2013-09-30 21:29:00
5:45 PM,82.4,71.6,70,29.91,3.0,Variable,3.5,-,0.14,Rain,Light Rain,0,2013-09-30 21:45:00
5:53 PM,80.1,72.0,76,29.91,9.0,ESE,5.8,-,0.14,Rain,Light Rain,120,2013-09-30 21:53:00
6:53 PM,80.1,73.0,79,29.93,10.0,ENE,11.5,-,0.00,,Mostly Cloudy,60,2013-09-30 22:53:00
7:53 PM,77.0,73.0,88,29.95,10.0,East,3.5,-,0.00,,Overcast,100,2013-09-30 23:53:00
8:53 PM,77.0,73.0,88,29.98,10.0,ESE,10.4,-,N/A,,Overcast,120,2013-10-01 00:53:00
9:53 PM,73.9,66.9,79,30.00,10.0,East,17.3,23.0,N/A,,Overcast,100,2013-10-01 01:53:00
10:53 PM,75.0,66.9,76,29.99,10.0,SSW,4.6,-,N/A,,Overcast,210,2013-10-01 02:53:00
11:53 PM,77.0,68.0,74,29.99,10.0,East,3.5,-,N/A,,Overcast,80,2013-10-01 03:53:00